Flag for Mexico Weather past 2 weeks in Veracruz, Veracruz, Mexico

Now
72 °F

Light rain. Mostly cloudy.


Feels Like: 65 °F
Forecast: 77 / 83 °F
Wind: 5 mph from Northwest

Location: Gen. Heriberto Jara

Current Time: Jul 4, 2015 at 9:11:11 AM

Latest Report: Jul 4, 2015 at 6:45 AM


Visibility: 5 mi

Pressure: 29.88 "Hg

Humidity: 100%

Dew point: 72 °F

Location of VeracruzLocation

Historic Weather in Veracruz — Graph

°F

Veracruz temperature yesterday

Maximum temperature yesterday: 82 °F (at 10:46 AM)
Minimum temperature yesterday: 73 °F (at 10:54 PM)
Average temperature yesterday: 80 °F

Past Weeks' High & Low Weather Summary

 TemperatureHumidityPressure
High90 °F (Jun 21, 2:45 PM)100% (Jun 19, 11:19 PM)30.10 "Hg (Jun 19, 11:19 PM)
Low70 °F (Jul 4, 2:14 AM)59% (Jun 24, 2:46 PM)29.80 "Hg (Jun 30, 6:54 PM)
Average80 °F84%29.95 "Hg
* Reported Jun 19 8:45 AM — Jul 4 6:45 AM, Veracruz, Weather by CustomWeather, © 2015

Note: Actual official high and low records may vary slightly from our data, if they occured in-between our weather recording intervals... More about our weather records

Advertising

Veracruz weather history for previous 24 hours

 ConditionsComfort  
Time TempWeatherWind HumidityBarometerVisibility
6:45 AM
Sat, Jul 4
72 °FLight rain. Mostly cloudy.5 mph100%29.88 "Hg5 mi
3:49 AM70 °FLight rain. Mostly cloudy.6 mph100%29.84 "Hg6 mi
2:44 AM70 °FThunderstorms. Overcast.7 mph100%29.92 "Hg6 mi
2:14 AM70 °FThunderstorms. Overcast.7 mph94%29.94 "Hg4 mi
1:44 AM73 °FStrong thunderstorms. Low clouds.14 mph100%30.00 "Hg1 mi
12:51 AM73 °FThunderstorms. Overcast.6 mph100%29.97 "Hg5 mi
10:54 PM
Fri, Jul 3
73 °FThunderstorms. Overcast.7 mph100%29.95 "Hg4 mi
10:45 PM75 °FStrong thunderstorms. Mostly cloudy.13 mph94%29.94 "Hg1 mi
9:50 PM79 °FStrong thunderstorms. Overcast.5 mph94%29.92 "Hg1 mi
8:47 PM79 °FMostly cloudy.3 mph94%29.92 "Hg6 mi
7:46 PM81 °FMore clouds than sun.5 mph89%29.89 "Hg5 mi
6:49 PM82 °FMore clouds than sun.6 mph84%29.80 "Hg5 mi
5:46 PM82 °FMore clouds than sun.7 mph79%29.87 "Hg6 mi
4:49 PM82 °FMostly cloudy.8 mph79%29.87 "Hg6 mi
3:53 PM82 °FOvercast.7 mph79%29.85 "Hg6 mi
2:46 PM81 °FOvercast.5 mph84%29.89 "Hg6 mi
1:45 PM81 °FMore clouds than sun.6 mph84%29.92 "Hg6 mi
12:48 PM81 °FMore clouds than sun.7 mph84%29.88 "Hg5 mi
11:44 AM82 °FBroken clouds.2 mph79%29.93 "Hg5 mi
10:46 AM82 °FCloudy.5 mph74%29.94 "Hg5 mi
10:10 AM79 °FMostly cloudy.5 mph84%29.94 "Hg5 mi
Weather by CustomWeather, © 2015

See weather overviewHow to use our weather pages